Regional Weather Roundup
Issued by NWS Grand Forks, ND

Home | Current Version | Previous Version | Graphics & Text | Print | Product List | Glossary On
Versions: 1 2 3 4 5 6 7 8 9 10 11 12 13 14 15 16 17 18 19 20 21 22 23 24 25 26 27 28 29 30 31 32 33 34 35 36 37 38 39 40 41 42 43 44 45 46 47 48 49 50
000
ASUS43 KFGF 231631
RWRFGF
PRAIRIE TO PINES  WEATHER ROUNDUP
NATIONAL WEATHER SERVICE EASTERN NORTH DAKOTA/GRAND FORKS ND
1100 AM CDT WED APR 23 2014

 **SATELLITE DATA USED TO AUGMENT SKY COVER AT AUTOMATED STATIONS**
 *****  WEATHER ACROSS EASTERN NORTH DAKOTA  *****

CITY           SKY/WX    TMP DP  RH WIND       PRES   REMARKS
GRAND FORKS    LGT RAIN  45  37  76 SE20G25   29.87S
GRAND FRKS AFB MIX PCPN  43  39  88 SE15      29.87S
GRAND FRKS NWS   N/A     43 N/A N/A SE20        N/A
DEVILS LAKE    CLOUDY    41  36  81 SE16      29.77R
FARGO          CLOUDY    44  39  82 SE20G33   29.86F
WAHPETON ARPT  CLOUDY    41  37  87 SE23G29   29.88F
$$

 ***** WEATHER ACROSS CENTRAL AND WESTERN NORTH DAKOTA  *****

CITY           SKY/WX    TMP DP  RH WIND       PRES   REMARKS
BISMARCK       PTSUNNY   58  39  49 SE35G41   29.56F
MINOT          LGT RAIN  48  43  82 E29G43    29.57F
JAMESTOWN      CLOUDY    47  41  80 SE25G36   29.73R
MINOT AFB      CLOUDY    47  47  99 SE25G36   29.57F
GARRISON         N/A     50  42  74 SE29G38   29.53F
WILLISTON      CLOUDY    56  38  50 SE21G30   29.44R
DICKINSON      CLOUDY    54  35  48 S26G35    29.43R
HETTINGER      CLOUDY    52  36  54 SE16G23   29.47R
$$

 *****  OTHER AIRPORT OBSERVATIONS IN OUR AREA  *****

CITY           SKY/WX    TMP DP  RH WIND       PRES   REMARKS
WALHALLA         N/A     48  32  53 SE21G28   29.86S
GRAFTON AIRPOR CLOUDY    48  32  53 SE25G31   29.87S
VALLEY CITY AR PTSUNNY   45  45 100 SE31G39   29.76F
CANDO          MIX PCPN  41  41 100 SE17G25   29.78R
CAVALIER APRT  CLOUDY    48  32  53 SE13      29.87S
GWINNER        PTSUNNY   45  43  93 SE26G39   29.79R
ROLLA          LGT RAIN  41  41 100 SE21      29.78R
 ***** THE ABOVE OBSERVATIONS ARE NON NWS ARE NOT QUALITY
       CONTROLLED AND MAY MIS-REPORT RAIN FOR SNOW...
$$

  *****  WEATHER ACROSS NORTHERN MINNESOTA  *****

CITY           SKY/WX    TMP DP  RH WIND       PRES   REMARKS
FLAG ISLAND    PTSUNNY   43  25  49 SE10      30.02S
WARROAD        CLOUDY    52  28  40 SE16      29.99F
ROSEAU         CLOUDY    54  27  35 SE15      29.97S
HALLOCK          N/A     52  28  40 SE24      29.89F
THF RVR FALLS  CLOUDY    52  25  35 SE20      29.92F
BAUDETTE       CLOUDY    50  26  39 S13G20    30.02F
WASKISH        CLOUDY    52  27  37 SE15G23   30.01F
CROOKSTON      DRIZZLE   50  28  43 SE21G28   29.90S
$$
  *****  WEATHER ACROSS CENTRAL AND WEST MINNESOTA  *****

CITY           SKY/WX    TMP DP  RH WIND       PRES   REMARKS
FOSSTON        CLOUDY    48  21  34 SE18G25   29.92F
BEMIDJI        CLOUDY    48  25  39 SE14G22   29.99F
PARK RAPIDS    CLOUDY    47  26  44 SE20G26   29.98F
ELBOW LAKE     LGT RAIN  40  38  93 SE23G33   29.90F
WADENA         DRIZZLE   43  34  70 SE21G30   29.96F
DETROIT LAKES  DRIZZLE   43  37  81 SE24G33   29.92S
MOORHEAD       CLOUDY    45  43  93 SE23      29.88F
FERGUS FALLS   CLOUDY    41  39  93 SE18G25   29.88F
MORRIS MN      LGT RAIN  43  37  81 SE24      29.90F
STAPLES        CLOUDY    46  27  46 SE15G22   30.00F
$$
  *****  WEATHER ELSEWHERE ACROSS MINNESOTA  *****

CITY           SKY/WX    TMP DP  RH WIND       PRES   REMARKS
DULUTH         PTSUNNY   44  25  47 SE8       30.11F
INTRNTL FALLS  PTSUNNY   51  22  31 S8G20     30.06S
ELY            PTSUNNY   50  19  29 S6        30.09S
CLOQUET        PTSUNNY   45  25  45 E6        30.10F
WHEATON        DRIZZLE   45  41  87 SE25G31   29.90R
BRAINERD       CLOUDY    51  26  37 SE8       30.04F
HIBBING        CLOUDY    49  24  37 S10G21    30.09F
ALEXANDRIA     RAIN      39  36  87 SE23G30   29.96F FOG
SAINT CLOUD    LGT RAIN  45  31  58 S13       30.06F
MINNEAPOLIS    CLOUDY    45  28  51 SE14      30.11R
$$

  *****  WEATHER ACROSS SOUTH DAKOTA  *****

CITY           SKY/WX    TMP DP  RH WIND       PRES   REMARKS
SIOUX FALLS    CLOUDY    53  35  50 SE28G43   29.77F
BROOKINGS      NOT AVBL
WATERTOWN      CLOUDY    44  37  76 SE18G31   29.79F
HURON          CLOUDY    56  34  43 SE26G41   29.70R
SISSETON         N/A     43  39  86 S31G38    29.84F
ABERDEEN       CLOUDY    50  40  68 SE28G44   29.70R
MITCHELL       CLOUDY    58  37  45 SE35G47   29.68S
PIERRE         CLOUDY    57  38  48 SE22G31   29.50F
MOBRIDGE       CLOUDY    53  37  54 SE33G41   29.53F
RAPID CITY     CLOUDY    65  41  41 N10       29.49R
$$

  *****  SOME WEATHER IN NEARBY STATES *****

CITY           SKY/WX    TMP DP  RH WIND       PRES   REMARKS
GLASGOW MT     CLOUDY    45  38  76 NW28G38   29.48S
GREAT FALLS MT MOSUNNY   44  22  41 W30G40    29.64F
CHEYENNE WY    SUNNY     55  30  38 W18G25    29.70R
SCOTTSBLUFF NE PTSUNNY   60  31  33 W20       29.61R
OMAHA NE       LGT RAIN  50  42  74 SE25G32   29.86F
DES MOINES IA  CLOUDY    54  33  45 SE17      30.05S
DAVENPORT IA   CLOUDY    47  30  51 SE13      30.16F
CHICAGO IL     MOSUNNY   44  24  45 NE9       30.18R
EAU CLAIRE WI  CLOUDY    47  25  42 SE10      30.14R
LA CROSSE WI   CLOUDY    50  28  42 S12       30.13F
$$

  *****  SOME NATIONAL WEATHER *****

CITY           SKY/WX    TMP DP  RH WIND       PRES   REMARKS
LA GUARDIA NY  PTSUNNY   52  35  52 NW22G30   29.59F
RALEIGH NC     MOSUNNY   65  29  25 W13G20    29.88R
ATLANTA GA     SUNNY     69  40  34 NW10G21   29.97S
NEW ORLEANS LA MOSUNNY   77  63  61 VRB3      30.00S
OKLAHOMA CITY  MOSUNNY   76  54  46 S22G29    29.87F
ALBUQUERQUE NM MOSUNNY   66  25  21 W18       29.89S
SALT LAKE CITY MOSUNNY   45  25  45 NW15      30.02R
LOS ANGELES CA PTSUNNY   64  47  53 NE7       29.97R
BOISE ID       CLOUDY    45  27  49 NW3       30.02S
SEATTLE WA     PTSUNNY   47  42  83 S13       29.91S
$$

*** WEATHER ACROSS MANITOBA...SASKATCHEWAN AND ONTARIO ***
                ***ONTARIO***

CITY           SKY/WX    TMP DP  RH WIND       PRES   REMARKS
GERALDTON      MOSUNNY   45  23  42 NW6       30.11S
THUNDER BAY    MOSUNNY   48  23  37 S3        30.15F
SIOUX LOOKOUT  MOSUNNY   48  21  34 CALM      30.09F
TORONTO        MOSUNNY   43  28  56 N18G26    29.94R
BIG TROUT LK   SUNNY     39  19  45 SW6       30.12F
PICKLE LAKE    MOSUNNY   46  21  36 E8        30.09F
DRYDEN         SUNNY     48  21  34 SE10      30.08F
KENORA         PTSUNNY   50  23  34 S12G18    30.04F
$$
                *** MANITOBA***

CITY           SKY/WX    TMP DP  RH WIND       PRES   REMARKS
BRANDON        CLOUDY    45  34  65 E13       29.80S
DAUPHIN        SUNNY     45  34  65 E17G23    29.84F
ISLAND LAKE    MOSUNNY   46  39  76 SE3       30.06F
PILOT MOUND      N/A     45  34  65 SE24G30     N/A
THE PAS        PTSUNNY   45  30  57 E12G17    29.96
THOMPSON       SUNNY     34  25  69 NE9       30.15S
WINNIPEG       CLOUDY    52  27  37 SE16      29.94F
LYNN LAKE      SUNNY     28  21  74 NE15      30.15F WCI  17
CHURCHILL      CLOUDY    21  18  86 NW13G18   30.29  WCI   9
GILLAM         PTSUNNY   28  25  86 NE12      30.22R WCI  18
$$
                ***SASKATCHEWAN***

CITY           SKY/WX    TMP DP  RH WIND       PRES   REMARKS
ESTEVAN        LGT RAIN  48  43  81 SE29G35   29.52F
KINDERSLEY     LGT RAIN  43  41  93 SE20G26   29.38
LLOYDMINSTER   LGT RAIN  43  36  75 SE24G33   29.46S
PRINCE ALBERT  CLOUDY    46  36  66 E18G26    29.68F
REGINA         LGT RAIN  45  41  87 E23G33    29.53F FOG
YORKTON        MOSUNNY   50  36  57 E24G33    29.70F
N. BATTLEFORD  PTSUNNY   45  36  70 E30G37    29.51F
LA RONGE       PTSUNNY   43  32  65 NE15G24   29.88F
SASKATOON      LGT RAIN  43  36  75 E25G36    29.54F
SWIFT CURRENT  LGT RAIN  41  39  93 SW12      29.43S
$$
NOTE: THESE ARE AUTOMATED STATIONS WITH LIMITED QUALITY CONTROL
      "FAIR" INDICATES FEW OR NO CLOUDS BELOW 12,000 FEET WITH NO
      SIGNIFICANT WEATHER AND/OR OBSTRUCTIONS TO VISIBILITY.
      SKY/WX - SKY CONDITION AND SIGNIFICANT WEATHER.
      TMP - AIR TEMPERATURE.    DP   - DEWPOINT TEMPERATURE.
      RH  - RELATIVE HUMIDITY.  PRES - PRESSURE.
      HX  - HEAT INDEX.         WCI  - WIND CHILL INDEX.
$



USA.gov is the U.S. government's official web portal to all federal, state and local government web resources and services.